Location: Fort Wayne
(41.1310°N, 85.1290°W)
Time: 15:20:50
(UTC-04:00)

Cosmos 2219 Rocket - Visible Passes

Search period start: 18 April 2015 00:00
Search period end: 28 April 2015 00:00
Orbit: 829 x 846 km, 71.0° (Epoch: 17 April)

Date Brightness Start Highest point End Pass type
(mag) Time Alt. Az. Time Alt. Az. Time Alt. Az.
23 Apr 3.5 06:13:39 10° S 06:18:51 42° ESE 06:24:07 10° NE visible
24 Apr 3.6 05:57:28 10° S 06:02:34 39° ESE 06:07:46 10° NE visible
25 Apr 3.6 05:41:18 10° S 05:46:18 36° ESE 05:51:24 10° NE visible
26 Apr 3.7 05:25:08 10° SSE 05:30:02 33° ESE 05:35:02 10° NE visible
27 Apr 3.8 05:08:59 10° SSE 05:13:46 31° ESE 05:18:40 10° NE visible
